Location: ???????
(55.3754°N, 39.3545°E)
Time: 09:45:01
(UTC+00:00)

TSX-5 - Pass Details

Date: 14 April 2026
Orbit: 387 x 997 km, 68.9° (Epoch: 19 May)

Event Time Altitude Azimuth Distance (km) Brightness Sun altitude
Rises 19:34:09 0° 225° (SW) 3,150 7.5 -21.1°
Reaches altitude 10° 19:36:43 10° 228° (SW) 2,123 6.7 -21.3°
Maximum altitude 19:41:26 65° 311° (NW) 657 4.3 -21.6°
Drops below altitude 10° 19:45:21 10° 34° (NE) 1,769 6.8 -21.9°
Sets 19:47:21 0° 38° (NE) 2,578 7.6 -22.0°
